Location: Street
(51.1247°N, 2.7429°W)
Time: 10:24:36
(UTC+00:00)

Tiros 1 - Pass Details

Date: 27 November 2020
Orbit: 630 x 663 km, 48.4° (Epoch: 21 January)

Event Time Altitude Azimuth Distance (km) Brightness Sun altitude
Rises 22:47:19 0° 274° (W) 2,970 - -57.1°
Reaches altitude 10° 22:52:12 10° 230° (SW) 2,041 - -57.5°
Maximum altitude 22:52:35 10° 225° (SW) 2,033 - -57.5°
Drops below altitude 10° 22:52:59 10° 220° (SW) 2,038 - -57.6°
Sets 22:57:49 0° 176° (S) 2,929 - -57.9°
